Time,TemperatureF,DewpointF,PressureIn,WindDirection,WindDirectionDegrees,WindSpeedMPH,WindSpeedGustMPH,Humidity,HourlyPrecipIn,Conditions,Clouds,dailyrainin,SoftwareType,DateUTC
2013-08-09 00:08:00,82.3,70.0,29.80,SSW,204,0.0,0.0,66,0.00,,,0.00,weatherlink.com 1.10,2013-08-09 05:08:00,
2013-08-09 00:23:00,81.5,71.0,29.81,SSW,212,0.0,0.0,70,0.00,,,0.00,weatherlink.com 1.10,2013-08-09 05:23:00,
2013-08-09 00:38:00,80.9,71.0,29.80,SW,214,0.0,0.0,72,0.00,,,0.00,weatherlink.com 1.10,2013-08-09 05:38:00,
2013-08-09 00:53:00,80.4,71.0,29.80,SSW,197,0.0,0.0,74,0.00,,,0.00,weatherlink.com 1.10,2013-08-09 05:53:00,
2013-08-09 01:08:00,79.9,71.0,29.81,SW,218,0.0,0.0,75,0.00,,,0.00,weatherlink.com 1.10,2013-08-09 06:08:00,
2013-08-09 01:23:00,79.2,71.0,29.81,SSE,150,0.0,0.0,76,0.00,,,0.00,weatherlink.com 1.10,2013-08-09 06:23:00,
2013-08-09 01:38:00,78.6,71.0,29.81,SSW,205,0.0,0.0,78,0.00,,,0.00,weatherlink.com 1.10,2013-08-09 06:38:00,
2013-08-09 01:53:00,78.1,71.0,29.81,SW,234,0.0,0.0,79,0.00,,,0.00,weatherlink.com 1.10,2013-08-09 06:53:00,
2013-08-09 02:08:00,77.6,71.0,29.80,SSW,208,0.0,0.0,80,0.00,,,0.00,weatherlink.com 1.10,2013-08-09 07:08:00,
2013-08-09 02:23:00,77.3,71.0,29.81,SSW,207,0.0,0.0,80,0.00,,,0.00,weatherlink.com 1.10,2013-08-09 07:23:00,
2013-08-09 02:38:00,77.0,70.0,29.81,SSW,203,0.0,0.0,80,0.00,,,0.00,weatherlink.com 1.10,2013-08-09 07:38:00,
2013-08-09 02:53:00,76.7,70.0,29.81,SSW,194,0.0,0.0,80,0.00,,,0.00,weatherlink.com 1.10,2013-08-09 07:53:00,
2013-08-09 03:08:00,76.4,69.0,29.82,SSW,208,0.0,0.0,79,0.00,,,0.00,weatherlink.com 1.10,2013-08-09 08:08:00,
2013-08-09 03:23:00,76.0,69.0,29.81,SSW,200,0.0,0.0,79,0.00,,,0.00,weatherlink.com 1.10,2013-08-09 08:23:00,
2013-08-09 03:38:00,75.3,69.0,29.82,SW,217,0.0,0.0,80,0.00,,,0.00,weatherlink.com 1.10,2013-08-09 08:38:00,
2013-08-09 03:53:00,74.9,69.0,29.82,SSW,198,0.0,0.0,81,0.00,,,0.00,weatherlink.com 1.10,2013-08-09 08:53:00,
2013-08-09 04:08:00,74.7,69.0,29.82,South,191,0.0,0.0,82,0.00,,,0.00,weatherlink.com 1.10,2013-08-09 09:08:00,
2013-08-09 04:23:00,74.0,69.0,29.82,SW,220,0.0,0.0,83,0.00,,,0.00,weatherlink.com 1.10,2013-08-09 09:23:00,
2013-08-09 04:38:00,73.7,69.0,29.82,SW,219,0.0,0.0,85,0.00,,,0.00,weatherlink.com 1.10,2013-08-09 09:38:00,
2013-08-09 04:53:00,73.2,69.0,29.82,SSW,193,0.0,0.0,86,0.00,,,0.00,weatherlink.com 1.10,2013-08-09 09:53:00,
2013-08-09 05:08:00,72.8,69.0,29.82,SSW,211,0.0,0.0,87,0.00,,,0.00,weatherlink.com 1.10,2013-08-09 10:08:00,
2013-08-09 05:23:00,72.5,69.0,29.82,South,169,0.0,0.0,88,0.00,,,0.00,weatherlink.com 1.10,2013-08-09 10:23:00,
2013-08-09 05:38:00,72.1,69.0,29.82,SSW,193,0.0,0.0,89,0.00,,,0.00,weatherlink.com 1.10,2013-08-09 10:38:00,
2013-08-09 05:53:00,72.0,69.0,29.82,SSW,198,0.0,0.0,89,0.00,,,0.00,weatherlink.com 1.10,2013-08-09 10:53:00,
2013-08-09 06:08:00,71.6,68.0,29.82,SE,129,0.0,0.0,89,0.00,,,0.00,weatherlink.com 1.10,2013-08-09 11:08:00,
2013-08-09 06:23:00,71.2,68.0,29.82,SSW,201,0.0,0.0,89,0.00,,,0.00,weatherlink.com 1.10,2013-08-09 11:23:00,
2013-08-09 06:38:00,70.8,68.0,29.83,SSW,211,0.0,0.0,90,0.00,,,0.00,weatherlink.com 1.10,2013-08-09 11:38:00,
2013-08-09 06:54:00,70.3,68.0,29.83,SSE,155,0.0,1.0,91,0.00,,,0.00,weatherlink.com 1.10,2013-08-09 11:54:00,
2013-08-09 07:09:00,70.3,68.0,29.83,SSW,207,0.0,1.0,91,0.00,,,0.00,weatherlink.com 1.10,2013-08-09 12:09:00,
2013-08-09 07:24:00,70.4,68.0,29.84,SSW,205,1.0,2.0,92,0.00,,,0.00,weatherlink.com 1.10,2013-08-09 12:24:00,
2013-08-09 07:39:00,70.9,69.0,29.84,SW,216,0.0,3.0,92,0.00,,,0.00,weatherlink.com 1.10,2013-08-09 12:39:00,
2013-08-09 07:54:00,71.8,69.0,29.84,SSW,203,0.0,1.0,91,0.00,,,0.00,weatherlink.com 1.10,2013-08-09 12:54:00,
2013-08-09 08:09:00,73.1,70.0,29.85,SE,128,0.0,1.0,89,0.00,,,0.00,weatherlink.com 1.10,2013-08-09 13:09:00,
2013-08-09 08:24:00,74.1,70.0,29.84,SSE,162,0.0,3.0,87,0.00,,,0.00,weatherlink.com 1.10,2013-08-09 13:24:00,
2013-08-09 08:39:00,75.4,70.0,29.85,SSE,153,1.0,7.0,84,0.00,,,0.00,weatherlink.com 1.10,2013-08-09 13:39:00,
2013-08-09 08:54:00,76.7,71.0,29.85,ESE,107,4.0,6.0,81,0.00,,,0.00,weatherlink.com 1.10,2013-08-09 13:54:00,
2013-08-09 09:09:00,78.6,70.0,29.85,WSW,242,4.0,7.0,74,0.00,,,0.00,weatherlink.com 1.10,2013-08-09 14:09:00,
2013-08-09 09:24:00,79.5,69.0,29.86,SE,132,5.0,8.0,70,0.00,,,0.00,weatherlink.com 1.10,2013-08-09 14:24:00,
2013-08-09 09:39:00,81.1,69.0,29.86,SW,222,4.0,11.0,66,0.00,,,0.00,weatherlink.com 1.10,2013-08-09 14:39:00,
2013-08-09 09:54:00,82.2,66.0,29.86,SW,214,2.0,10.0,59,0.00,,,0.00,weatherlink.com 1.10,2013-08-09 14:54:00,
2013-08-09 10:09:00,84.3,65.0,29.86,SSE,154,2.0,9.0,53,0.00,,,0.00,weatherlink.com 1.10,2013-08-09 15:09:00,
2013-08-09 10:24:00,85.7,65.0,29.86,SE,136,3.0,9.0,50,0.00,,,0.00,weatherlink.com 1.10,2013-08-09 15:24:00,
2013-08-09 10:39:00,86.4,62.0,29.87,SSW,207,5.0,9.0,44,0.00,,,0.00,weatherlink.com 1.10,2013-08-09 15:39:00,
2013-08-09 10:54:00,87.9,62.0,29.87,SSE,156,3.0,10.0,42,0.00,,,0.00,weatherlink.com 1.10,2013-08-09 15:54:00,
2013-08-09 11:09:00,89.3,59.0,29.87,SSW,212,0.0,0.0,36,0.00,,,0.00,weatherlink.com 1.10,2013-08-09 16:09:00,
2013-08-09 11:24:00,91.3,59.0,29.87,SW,236,0.0,0.0,34,0.00,,,0.00,weatherlink.com 1.10,2013-08-09 16:24:00,
2013-08-09 11:39:00,92.5,59.0,29.87,SE,146,0.0,0.0,32,0.00,,,0.00,weatherlink.com 1.10,2013-08-09 16:39:00,
2013-08-09 11:54:00,93.4,57.0,29.86,SSW,212,0.0,0.0,29,0.00,,,0.00,weatherlink.com 1.10,2013-08-09 16:54:00,
2013-08-09 12:09:00,92.9,55.0,29.86,South,180,0.0,0.0,28,0.00,,,0.00,weatherlink.com 1.10,2013-08-09 17:09:00,
2013-08-09 12:24:00,93.9,54.0,29.86,SW,217,0.0,0.0,26,0.00,,,0.00,weatherlink.com 1.10,2013-08-09 17:24:00,
2013-08-09 12:39:00,94.4,57.0,29.85,SE,140,0.0,0.0,28,0.00,,,0.00,weatherlink.com 1.10,2013-08-09 17:39:00,
2013-08-09 12:54:00,94.8,55.0,29.85,SW,229,0.0,0.0,26,0.00,,,0.00,weatherlink.com 1.10,2013-08-09 17:54:00,
2013-08-09 13:09:00,96.5,56.0,29.84,South,177,0.0,0.0,26,0.00,,,0.00,weatherlink.com 1.10,2013-08-09 18:09:00,
2013-08-09 13:24:00,96.4,57.0,29.84,SE,145,0.0,0.0,27,0.00,,,0.00,weatherlink.com 1.10,2013-08-09 18:24:00,
2013-08-09 13:39:00,96.7,57.0,29.84,South,177,0.0,0.0,26,0.00,,,0.00,weatherlink.com 1.10,2013-08-09 18:39:00,
2013-08-09 13:54:00,97.2,55.0,29.84,South,179,0.0,0.0,24,0.00,,,0.00,weatherlink.com 1.10,2013-08-09 18:54:00,
2013-08-09 14:10:00,98.3,52.0,29.84,SW,218,0.0,0.0,21,0.00,,,0.00,weatherlink.com 1.10,2013-08-09 19:10:00,
2013-08-09 14:25:00,98.9,55.0,29.83,SSW,197,0.0,0.0,23,0.00,,,0.00,weatherlink.com 1.10,2013-08-09 19:25:00,
2013-08-09 14:40:00,99.5,54.0,29.83,SW,222,0.0,0.0,22,0.00,,,0.00,weatherlink.com 1.10,2013-08-09 19:40:00,
2013-08-09 14:55:00,98.7,56.0,29.82,ENE,61,0.0,0.0,24,0.00,,,0.00,weatherlink.com 1.10,2013-08-09 19:55:00,
2013-08-09 15:10:00,98.7,55.0,29.82,SSW,198,0.0,0.0,23,0.00,,,0.00,weatherlink.com 1.10,2013-08-09 20:10:00,
2013-08-09 15:25:00,100.2,55.0,29.82,SSW,198,0.0,0.0,22,0.00,,,0.00,weatherlink.com 1.10,2013-08-09 20:25:00,
2013-08-09 15:40:00,100.0,55.0,29.81,SE,145,0.0,0.0,22,0.00,,,0.00,weatherlink.com 1.10,2013-08-09 20:40:00,
2013-08-09 15:55:00,99.6,53.0,29.81,NW,319,0.0,0.0,21,0.00,,,0.00,weatherlink.com 1.10,2013-08-09 20:55:00,
2013-08-09 16:10:00,100.2,54.0,29.81,SE,132,0.0,0.0,21,0.00,,,0.00,weatherlink.com 1.10,2013-08-09 21:10:00,
2013-08-09 16:25:00,101.0,52.0,29.80,SE,130,0.0,0.0,19,0.00,,,0.00,weatherlink.com 1.10,2013-08-09 21:25:00,
2013-08-09 16:40:00,100.0,51.0,29.80,WSW,243,0.0,0.0,19,0.00,,,0.00,weatherlink.com 1.10,2013-08-09 21:40:00,
2013-08-09 16:55:00,99.4,50.0,29.80,SSE,165,0.0,0.0,19,0.00,,,0.00,weatherlink.com 1.10,2013-08-09 21:55:00,
2013-08-09 17:10:00,100.8,50.0,29.79,ESE,114,0.0,0.0,18,0.00,,,0.00,weatherlink.com 1.10,2013-08-09 22:10:00,
2013-08-09 17:25:00,101.4,52.0,29.79,SSW,204,0.0,0.0,19,0.00,,,0.00,weatherlink.com 1.10,2013-08-09 22:25:00,
2013-08-09 17:40:00,100.4,51.0,29.79,SW,217,0.0,0.0,19,0.00,,,0.00,weatherlink.com 1.10,2013-08-09 22:40:00,
2013-08-09 17:55:00,100.1,50.0,29.79,North,5,0.0,0.0,18,0.00,,,0.00,weatherlink.com 1.10,2013-08-09 22:55:00,
2013-08-09 18:10:00,98.8,50.0,29.78,SE,138,0.0,0.0,19,0.00,,,0.00,weatherlink.com 1.10,2013-08-09 23:10:00,
2013-08-09 18:25:00,99.5,49.0,29.78,ENE,78,0.0,0.0,18,0.00,,,0.00,weatherlink.com 1.10,2013-08-09 23:25:00,
2013-08-09 18:40:00,99.4,47.0,29.78,SSE,152,0.0,0.0,17,0.00,,,0.00,weatherlink.com 1.10,2013-08-09 23:40:00,
2013-08-09 19:10:00,97.7,52.0,29.78,SSE,149,0.0,0.0,21,0.00,,,0.00,weatherlink.com 1.10,2013-08-10 00:10:00,
2013-08-09 19:25:00,96.7,52.0,29.78,South,176,0.0,0.0,22,0.00,,,0.00,weatherlink.com 1.10,2013-08-10 00:25:00,
2013-08-09 19:40:00,95.4,52.0,29.78,SSE,160,0.0,0.0,23,0.00,,,0.00,weatherlink.com 1.10,2013-08-10 00:40:00,
2013-08-09 19:55:00,93.9,52.0,29.79,ESE,107,0.0,0.0,24,0.00,,,0.00,weatherlink.com 1.10,2013-08-10 00:55:00,
2013-08-09 20:10:00,92.3,52.0,29.80,SSW,205,0.0,1.0,25,0.00,,,0.00,weatherlink.com 1.10,2013-08-10 01:10:00,
2013-08-09 20:25:00,90.1,51.0,29.80,SSW,205,0.0,1.0,26,0.00,,,0.00,weatherlink.com 1.10,2013-08-10 01:25:00,
2013-08-09 20:40:00,88.3,51.0,29.81,SSW,207,0.0,0.0,28,0.00,,,0.00,weatherlink.com 1.10,2013-08-10 01:40:00,
2013-08-09 20:55:00,86.6,53.0,29.82,SSW,207,0.0,0.0,31,0.00,,,0.00,weatherlink.com 1.10,2013-08-10 01:55:00,
2013-08-09 21:10:00,84.3,52.0,29.83,SSW,207,0.0,0.0,33,0.00,,,0.00,weatherlink.com 1.10,2013-08-10 02:10:00,
2013-08-09 21:25:00,82.4,53.0,29.84,SSW,207,0.0,0.0,36,0.00,,,0.00,weatherlink.com 1.10,2013-08-10 02:25:00,
2013-08-09 21:40:00,80.8,53.0,29.85,SSW,207,0.0,0.0,38,0.00,,,0.00,weatherlink.com 1.10,2013-08-10 02:40:00,
2013-08-09 21:55:00,79.6,53.0,29.85,SSW,207,0.0,0.0,40,0.00,,,0.00,weatherlink.com 1.10,2013-08-10 02:55:00,
2013-08-09 22:10:00,77.9,54.0,29.86,SSW,207,0.0,0.0,43,0.00,,,0.00,weatherlink.com 1.10,2013-08-10 03:10:00,
2013-08-09 22:25:00,76.9,54.0,29.87,SSW,207,0.0,0.0,45,0.00,,,0.00,weatherlink.com 1.10,2013-08-10 03:25:00,
2013-08-09 22:40:00,75.8,53.0,29.87,SSW,207,0.0,0.0,46,0.00,,,0.00,weatherlink.com 1.10,2013-08-10 03:40:00,
2013-08-09 22:55:00,75.0,53.0,29.88,SSW,207,0.0,0.0,46,0.00,,,0.00,weatherlink.com 1.10,2013-08-10 03:55:00,
2013-08-09 23:10:00,74.1,53.0,29.88,SSW,207,0.0,0.0,48,0.00,,,0.00,weatherlink.com 1.10,2013-08-10 04:10:00,
2013-08-09 23:25:00,73.6,54.0,29.89,SSW,207,0.0,0.0,50,0.00,,,0.00,weatherlink.com 1.10,2013-08-10 04:25:00,
2013-08-09 23:40:00,73.0,54.0,29.89,SSW,207,0.0,0.0,51,0.00,,,0.00,weatherlink.com 1.10,2013-08-10 04:40:00,
2013-08-09 23:55:00,72.4,54.0,29.89,SSW,207,0.0,0.0,52,0.00,,,0.00,weatherlink.com 1.10,2013-08-10 04:55:00,